Location: Perryvale
(54.4667°N, 113.3833°W)
Time: 20:57:02
(UTC+00:00)

Transit 2A - Pass Details

Date: 22 May 2024
Orbit: 592 x 959 km, 66.7° (Epoch: 19 June)

Event Time Altitude Azimuth Distance (km) Brightness Sun altitude
Exits shadow 06:31:23 18° 194° (SSW) 1,624 7.2 -14.0°
Maximum altitude 06:34:43 54° 123° (ESE) 865 6.0 -14.1°
Drops below altitude 10° 06:39:49 10° 47° (NE) 2,314 8.9 -14.3°
Sets 06:42:24 0° 43° (NE) 3,309 9.8 -14.3°
